Cloud_Cover
0 0 90 66 94 56 5 3 5 27 40 3 1 2 45 66 98 100 100 48 100 100 100 100 100 100 100 99 96 62 100 96 48 98 100 100 100 100 100 100 100 100 100
0 7 93 100 96 80 5 5 5 20 84 99 62 58 49 100 98 33 46 100 100 100 100 100 100 100 100 100 100 100 100 100 100 100 100 100 100 100 100 100 100 100 100
22 5 96 77 100 0 63 53 28 74 100 100 100 96 100 95 92 88 98 100 100 100 100 100 100 100 100 100 100 100 100 100 100 100 100 100 100 100 100 100 100 100 100
9 30 89 6 4 8 5 5 5 23 99 100 100 100 100 98 100 100 88 100 100 100 100 100 100 100 100 100 100 100 100 100 100 100 100 100 100 100 100 100 100 100 100
0 65 24 1 14 5 54 93 5 38 100 100 96 63 50 100 100 100 100 100 100 100 100 100 100 100 100 100 100 100 100 100 100 100 100 100 100 100 100 100 100 100 100
0 21 36 30 94 8 78 92 100 69 95 100 33 0 98 100 100 100 100 100 100 100 100 100 100 100 100 100 100 100 100 100 100 100 100 100 100 100 100 100 100 100 100
0 31 16 100 30 76 98 75 92 65 67 74 54 68 100 100 100 94 100 100 100 100 100 100 100 100 100 100 100 100 100 100 100 100 100 100 100 100 100 100 100 100 100
0 32 6 41 23 7 94 99 70 14 21 82 33 85 11 100 95 100 100 100 100 100 100 100 100 100 100 100 100 100 100 100 100 100 100 100 100 100 100 100 100 100 100
0 11 29 4 59 7 56 97 100 28 73 100 82 92 98 100 100 100 100 100 100 100 100 100 100 100 100 100 100 100 100 100 100 100 100 100 100 100 100 100 100 100 100
0 8 37 1 5 24 3 72 99 42 92 100 100 100 73 100 100 100 78 100 100 100 100 100 100 100 100 100 100 100 100 100 100 100 100 100 100 100 100 100 100 100 100
0 0 17 1 18 0 1 10 100 11 23 100 85 18 65 20 100 100 100 81 100 100 100 90 100 100 100 100 100 100 100 100 100 100 100 100 100 100 100 100 100 100 100
0 0 0 0 0 0 0 1 20 27 73 100 100 98 42 69 100 100 100 58 99 100 100 100 89 75 100 100 100 100 100 98 100 100 98 100 100 100 100 100 100 100 100
0 0 0 0 0 0 2 0 0 1 6 100 99 100 100 35 100 100 100 100 97 93 100 100 92 93 57 46 100 99 99 94 85 97 93 100 100 100 100 100 100 100 100
0 0 0 0 0 0 0 0 0 0 5 99 91 94 99 100 100 100 100 100 94 99 100 100 100 53 11 94 99 77 98 100 100 100 100 100 100 100 100 100 100 100 100
0 0 0 0 0 0 0 17 64 6 0 87 100 30 99 14 36 94 99 99 100 100 88 74 92 100 100 91 100 100 100 100 100 100 100 100 100 100 100 100 100 100 100
0 0 0 0 0 0 0 0 72 2 0 0 0 0 19 100 22 4 0 0 36 100 92 100 100 100 100 99 100 78 8 100 100 100 100 95 76 79 68 47 17 34 40
0 0 0 0 0 0 0 0 0 33 22 6 0 0 0 0 4 9 95 99 31 7 0 6 16 98 100 91 82 100 100 13 89 100 100 100 100 100 100 10 5 63 5
0 0 0 0 0 0 0 0 0 0 0 0 46 3 9 0 0 0 1 4 16 34 5 5 4 3 5 5 5 10 34 79 24 1 0 0 1 5 5 5 5 5 10
0 0 0 0 0 0 0 0 0 0 0 0 0 2 23 10 12 6 27 0 0 0 0 0 18 36 0 0 0 0 0 0 1 5 5 5 5 5 5 5 5 5 5
0 0 0 0 0 0 0 0 0 0 0 0 0 0 0 1 1 0 0 0 0 0 0 0 0 43 16 0 0 0 4 5 5 5 4 5 5 14 22 5 5 5 5
0 0 0 0 0 0 0 0 0 0 0 0 0 0 0 0 0 0 1 0 0 0 0 0 0 0 0 1 5 5 5 5 4 0 5 5 5 5 5 7 12 57 7
0 0 0 0 0 0 0 0 0 0 0 0 5 5 5 5 5 5 5 4 5 3 0 2 0 4 1 0 0 0 4 5 6 8 9 16 44 6 92 59 62 69 83
2 4 5 2 0 0 0 0 0 0 0 0 1 1 2 4 12 5 5 5 11 20 5 1 4 5 5 6 83 68 6 43 64 56 98 26 68 64 68 78 21 77 18
71 61 5 2 0 3 0 5 1 5 0 4 3 5 4 5 0 2 5 5 0 0 2 11 20 5 17 65 59 88 80 100 56 82 76 96 88 78 54 13 5 8 71
6 86 99 23 0 2 3 4 2 0 2 0 4 5 5 5 5 5 5 4 3 5 5 4 10 0 95 99 100 100 81 37 47 89 65 97 83 8 73 6 19 100 100
6 0 0 2 3 3 5 5 5 5 0 0 0 1 5 5 4 3 5 5 1 0 3 4 66 5 5 19 99 54 99 100 100 100 100 100 88 100 100 100 82 100 100